Zurück zum Katalog

CZ-4C R/B

AktivPO
NORAD 52258·ROCKET BODY·🇨🇳 China

Gestartet Apr 15, 2022 von Taiyuan Satellite Launch Center

Loading…

Nächste Überflüge (nächste 24 Stunden)

TLE

AktuellSource: Space-Track

Epoche: Sep 14, 2026, 01:55 UTC

1 52258U 22039B   26257.08050084  .00002092  00000-0  13767-3 0  9995
2 52258  98.2332 306.5447 0112342 136.4898 224.5257 15.03757589241220

Verfolge CZ-4C R/B in Echtzeit mit AllMySat

Download on the App Store